星链-33923 (STARLINK-33923)

导读

STARLINK-33923是美国SpaceX星链星座的一员,于2025年5月2日发射升空。星链项目旨在构建全球卫星互联网星座,为全球范围提供高速互联网服务,这款卫星延续星链技术设计,将和其他星链卫星协同,进一步完善星座覆盖能力,提升服务覆盖密度与稳定性。

基本信息
目录编号:
63786
目录名称:
STARLINK-33923
国际标识:
2025-091M
轨道中心:
EARTH
卫星名称:
星链-33923
卫星全名:
星链-33923 (STARLINK-33923)
卫星状态:
在轨 (已飞行408 天)
发射日期:
2025-05-02 UTC
国别 :
美国 (US)
星等 :
--
轨道信息
数据来源 国际轨道数据
星历时间: 2026-06-13T19:55:20+0800
16小时前
查看轨道信息
半长轴: 6861.15km
偏心率: 0.0000625
轨道倾角: 43.001°
近地点辐角 262.559°
升交点赤经 231.547°
平近点角 97.519°
近地点: 482.584km
远地点: 483.442km
周期: 94.266分钟
每日圈数: 15.275921
详细信息
固有亮度:
5
最大亮度:
2.5
卫星平台:
Starlink V1.0
覆盖范围:
全球
运营商:
太空探索技术公司
运营商所在国:
美国
制造商(研发单位):
太空探索技术公司
制造商所在国:
美国
使用方式:
暂无
卫星简介
Starlink 计划是 SpaceX 推出的全球卫星互联网项目,通过发射低轨道卫星,为全球尤其是偏远地区提供高速、低延迟的互联网服务。自 2019 年起,Starlink 已部署数千颗卫星,旨在缩小全球数字鸿沟,推动互联网普及。该项目还为军事、航空等行业提供通信支持,带来广泛经济效益。
2D轨道图
3D轨道图
轨道高度分析图
轨道倾角分析图
轨道综合分析图
查看轨道综合分析图